sat.trackr.live / text

‹ back to catalog

STARLINK-30258

NORAD 57608 · 2023-119G

PAYLOAD ACTIVE UNKNOWN

§ Identity

Operator
Country
US
Launch date
2023-08-11
Launch site
AFETR
Launch vehicle
Mass (kg)
RCS (m²)

Purposes: comms

External: N2YO · Heavens-Above · Gunter

§ Orbital elements

Epoch: 2026-09-19T18:29:12.756192Z

Period
94.27 min
Inclination
43.0034°
Eccentricity
0.0000962
Mean motion
15.27577136 rev/d
Perigee alt
482.4 km
Apogee alt
483.7 km
Semi-major
6,861.2 km
B*
1.1871e-5
RAAN
65.9228°
Arg perigee
273.7226°
Mean anomaly
86.3516°
Rev number
17,276

§ Raw data

STARLINK-302581 57608U 23119G   26262.77028653  .00000065  00000+0  11871-4 0  99902 57608  43.0034  65.9228 0000962 273.7226  86.3516 15.27577136172766

JSON: /api/v1/satellites/57608 · /tle

For live sub-satellite position, see the globe view (requires WebGL).

§ Visibility from observer

Set your observer location to see the next 7 days of passes ≥ 10°. The values pass through the URL so the page stays shareable.

No JS? Fill the form by hand. The geolocation button needs JavaScript.